Emporia, KS

10:45 AM CDT on April 21, 2018 (GMT -0500)
Emporia Municipal

Weather History for KEMP - February, 2012

Change the Weather History Date:

Tuesday, February 7, 2012

  Actual Average Record
Temperature  
Mean Temperature 37 °F 33 °F  
Max Temperature 41 °F 44 °F 70 °F (2009)
Min Temperature 32 °F 22 °F -4 °F (2004)
Degree Days  
Heating Degree Days 28 32  
Month to date heating degree days 159 227  
Since 1 July heating degree days 2735 3215  
Cooling Degree Days 0 0  
Month to date cooling degree days 0 0  
Year to date cooling degree days 0 0  
Moisture  
Dew Point 32 °F    
Average Humidity 80    
Maximum Humidity 96    
Minimum Humidity 64    
Precipitation  
Precipitation 0.02 in 0.05 in 1.35 in (2013)
Month to date precipitation 1.64 0.30  
Year to date precipitation 1.64 0.93  
Sea Level Pressure  
Sea Level Pressure 30.35 in    
Wind  
Wind Speed 8 mph (NNW)    
Max Wind Speed 15 mph    
Max Gust Speed 21 mph    
Visibility 5 miles    
Events Rain , Snow    
T = Trace of Precipitation, MM = Missing Value Source: NWS Daily Summary

Daily Weather History Graph

Daily Weather History Graph

Search for Another Location

Airport or City:

Astronomy

Feb. 07, 2012 Rise Set
Actual Time 7:24 AM CST 5:53 PM CST
Civil Twilight 6:57 AM CST 6:21 PM CST
Nautical Twilight 6:25 AM CST 6:52 PM CST
Astronomical Twilight 5:54 AM CST 7:23 PM CST
Moon 6:05 PM CST (2/7) 6:54 AM CST (2/7)
Length of Visible Light 11h 24m
Length of Day
10h 29m
Full, 100% of the Moon is Illuminated
Feb 7
Full
Feb 7
Full
Feb 14
Last Quarter
Feb 21
New
Feb 29
First Quarter

Hourly Weather History & Observations

Time (CST) Temp. Windchill Dew Point Humidity Pressure Visibility Wind Dir Wind Speed Gust Speed Precip Events Conditions
12:53 AM 39.9 °F - 30.0 °F 68% 30.24 in 10.0 mi Calm Calm - N/A   Mostly Cloudy
1:53 AM 37.0 °F 34.5 °F 30.0 °F 76% 30.25 in 10.0 mi WNW 3.5 mph - N/A   Overcast
2:53 AM 41.0 °F 36.4 °F 35.1 °F 79% 30.25 in 10.0 mi WNW 6.9 mph - N/A   Overcast
3:53 AM 39.9 °F 36.7 °F 35.1 °F 83% 30.24 in 10.0 mi WNW 4.6 mph - N/A   Overcast
4:53 AM 39.9 °F 36.7 °F 35.1 °F 83% 30.24 in 10.0 mi WNW 4.6 mph - N/A   Overcast
5:53 AM 39.9 °F 35.8 °F 36.0 °F 86% 30.25 in 10.0 mi WNW 5.8 mph - 0.00 in   Overcast
6:53 AM 39.0 °F - 37.0 °F 93% 30.26 in 9.0 mi Calm Calm - 0.01 in Rain Light Rain
7:53 AM 39.0 °F - 37.0 °F 93% 30.30 in 10.0 mi Calm Calm - 0.00 in   Overcast
8:04 AM 39.2 °F - 37.4 °F 93% 30.27 in 10.0 mi Calm Calm - 0.00 in Rain Light Rain
8:32 AM 39.2 °F - 37.4 °F 93% 30.27 in 10.0 mi Calm Calm - 0.00 in Rain Light Rain
8:53 AM 41.0 °F - 37.0 °F 86% 30.31 in 10.0 mi Calm Calm - 0.01 in Rain Light Rain
9:53 AM 39.9 °F 33.9 °F 36.0 °F 86% 30.34 in 10.0 mi NNW 9.2 mph - 0.00 in   Overcast
10:53 AM 37.0 °F 31.0 °F 33.1 °F 86% 30.35 in 5.0 mi NNW 8.1 mph - N/A   Overcast
11:53 AM 37.9 °F 30.5 °F 33.1 °F 83% 30.36 in 3.0 mi NNW 11.5 mph - N/A   Haze
12:18 PM 39.2 °F 31.2 °F 33.8 °F 81% 30.32 in 2.5 mi NNW 13.8 mph - N/A   Haze
12:53 PM 37.9 °F 30.5 °F 32.0 °F 79% 30.35 in 2.5 mi NNW 11.5 mph - N/A   Haze
1:03 PM 37.4 °F 29.8 °F 32.0 °F 81% 30.31 in 2.5 mi NNW 11.5 mph - N/A   Haze
1:10 PM 37.4 °F 29.8 °F 32.0 °F 81% 30.31 in 2.5 mi NNW 11.5 mph - N/A   Haze
1:36 PM 35.6 °F 27.5 °F 30.2 °F 81% 30.32 in 3.0 mi NNW 11.5 mph - N/A   Haze
1:53 PM 36.0 °F 28.0 °F 30.9 °F 82% 30.35 in 3.0 mi NNW 11.5 mph - N/A   Haze
2:53 PM 36.0 °F 28.0 °F 30.9 °F 82% 30.35 in 4.0 mi NNW 11.5 mph - N/A   Haze
3:34 PM 35.6 °F 27.5 °F 30.2 °F 81% 30.33 in 1.8 mi NNW 11.5 mph - 0.00 in Snow Light Snow
3:53 PM 34.0 °F 26.0 °F 32.0 °F 92% 30.37 in 1.8 mi NNW 10.4 mph - 0.00 in Snow Light Snow
3:58 PM 33.8 °F 25.8 °F 32.0 °F 93% 30.34 in 2.0 mi NNW 10.4 mph - 0.00 in Snow Light Snow
4:07 PM 33.8 °F 25.3 °F 32.0 °F 93% 30.34 in 3.0 mi NNW 11.5 mph - 0.00 in   Overcast
4:19 PM 33.8 °F 24.8 °F 30.2 °F 87% 30.34 in 3.0 mi NNW 12.7 mph - 0.00 in   Overcast
4:30 PM 33.8 °F 24.8 °F 30.2 °F 87% 30.34 in 4.0 mi NNW 12.7 mph - 0.00 in   Overcast
4:53 PM 34.0 °F 26.0 °F 30.9 °F 89% 30.38 in 4.0 mi NNW 10.4 mph - 0.00 in   Overcast
5:53 PM 34.0 °F 24.6 °F 30.9 °F 89% 30.40 in 4.0 mi NNW 13.8 mph - N/A   Overcast
6:53 PM 34.0 °F 24.6 °F 30.0 °F 85% 30.41 in 4.0 mi NNW 13.8 mph - N/A   Overcast
7:53 PM 33.1 °F 24.9 °F 30.9 °F 92% 30.43 in 3.0 mi NNW 10.4 mph - 0.00 in Snow Light Snow
8:11 PM 33.8 °F 25.8 °F 30.2 °F 87% 30.40 in 2.5 mi NNW 10.4 mph - 0.00 in Snow Light Snow
8:53 PM 32.0 °F 24.8 °F 30.9 °F 96% 30.45 in 2.0 mi NNW 8.1 mph - 0.00 in Snow Light Snow
9:49 PM 32.0 °F 24.2 °F 30.2 °F 93% 30.42 in 3.0 mi NNW 9.2 mph - 0.00 in Snow Light Snow
9:53 PM 32.0 °F 24.2 °F 30.9 °F 96% 30.46 in 2.5 mi North 9.2 mph - 0.00 in Snow Light Snow
10:03 PM 32.0 °F 23.6 °F 30.2 °F 93% 30.43 in 3.0 mi NNW 10.4 mph - 0.00 in Snow Light Snow
10:53 PM 33.1 °F 24.4 °F 30.0 °F 89% 30.47 in 5.0 mi North 11.5 mph - 0.00 in   Overcast
11:19 PM 33.8 °F 25.3 °F 30.2 °F 87% 30.44 in 6.0 mi North 11.5 mph - N/A   Overcast
11:53 PM 32.0 °F 23.6 °F 30.0 °F 92% 30.49 in 6.0 mi North 10.4 mph - N/A   Overcast